Location: Saint John
(45.2733°N, 66.0633°W)
Time: 12:42:37
(UTC-03:00)

Tiangong - Visible Passes

Search period start: 23 October 2021 00:00
Search period end: 02 November 2021 00:00
Orbit: 381 x 390 km, 41.5° (Epoch: 23 October)

Date Brightness Start Highest point End Pass type
(mag) Time Alt. Az. Time Alt. Az. Time Alt. Az.
23 Oct 2.0 19:20:32 10° WSW 19:23:34 40° S 19:25:46 16° ESE visible
23 Oct 4.1 20:57:13 10° WSW 20:58:00 15° WSW 20:58:00 15° WSW visible
24 Oct 2.0 19:57:52 10° WSW 20:00:52 38° S 20:01:26 34° SSE visible
25 Oct 2.1 18:58:32 10° WSW 19:01:35 41° S 19:04:38 10° ESE visible
25 Oct 3.4 20:35:26 10° WSW 20:37:07 20° SW 20:37:07 20° SW visible
26 Oct 2.5 19:35:57 10° WSW 19:38:50 31° SSW 19:40:37 18° SE visible
27 Oct 3.4 20:13:47 10° WSW 20:15:55 17° SSW 20:16:24 16° SSW visible
28 Oct 3.2 19:14:04 10° WSW 19:16:41 23° SSW 19:19:19 10° SE visible
29 Oct 4.1 19:52:45 10° SW 19:53:38 11° SSW 19:54:33 10° SSW visible
30 Oct 3.9 18:52:19 10° WSW 18:54:26 16° SSW 18:56:33 10° SSE visible
